Wolke Sonne

Wetter Ammerndorf

Gehe zu: Roßtal

Tageswerte vom Freitag, 18.03.2022

Optionen

Tag:
Erweitert:

Alle Werte vom Freitag, 18.03.2022

Einen Moment bitte, die Daten werden aufbereitet...

UhrzeitTemperaturBoden 10cmBoden 20cmFeuchteLuftdruckNiederschlagEvapotranspirationWindWindböenWindrichtungSolarstrahlungUV-IndexSonne?Uhrzeit
Diagramm IconDiagramm IconDiagramm IconDiagramm IconDiagramm IconDiagramm IconDiagramm IconDiagramm IconDiagramm IconDiagramm IconDiagramm IconDiagramm IconDiagramm Icon
00:006,9 °C 5,6 °C 5,6 °C 83 % 1033,9 hPa 0,0 mm - 3,2 km/h 7,9 km/h ONO 0,0 W/qm 0,0 nein 00:00
00:056,9 °C 5,6 °C 5,6 °C 83 % 1034,0 hPa 0,0 mm 0,0 mm 1,4 km/h 7,9 km/h NO 0,0 W/qm 0,0 nein 00:05
00:106,9 °C 5,6 °C 5,6 °C 84 % 1034,0 hPa 0,0 mm 0,0 mm 1,4 km/h 6,5 km/h ONO 0,0 W/qm 0,0 nein 00:10
00:156,9 °C 5,6 °C 5,6 °C 84 % 1034,2 hPa 0,0 mm - 1,4 km/h 9,7 km/h NNO 0,0 W/qm 0,0 nein 00:15
00:206,9 °C 5,6 °C 5,6 °C 84 % 1034,2 hPa 0,0 mm - 1,4 km/h 9,7 km/h NO 0,0 W/qm 0,0 nein 00:20
00:256,9 °C 5,6 °C 5,6 °C 84 % 1034,2 hPa 0,0 mm - 1,4 km/h 9,7 km/h ONO 0,0 W/qm 0,0 nein 00:25
00:306,8 °C 5,6 °C 5,6 °C 84 % 1034,3 hPa 0,0 mm - 3,2 km/h 7,9 km/h NNO 0,0 W/qm 0,0 nein 00:30
00:356,8 °C 5,6 °C 5,6 °C 84 % 1034,3 hPa 0,0 mm - 3,2 km/h 7,9 km/h N 0,0 W/qm 0,0 nein 00:35
00:406,8 °C 5,6 °C 5,6 °C 84 % 1034,3 hPa 0,0 mm - 3,2 km/h 7,9 km/h NO 0,0 W/qm 0,0 nein 00:40
00:456,8 °C 5,6 °C 5,6 °C 84 % 1034,3 hPa 0,0 mm - 3,2 km/h 7,9 km/h NO 0,0 W/qm 0,0 nein 00:45
00:506,8 °C 5,6 °C 5,6 °C 84 % 1034,4 hPa 0,0 mm - 3,2 km/h 7,9 km/h NO 0,0 W/qm 0,0 nein 00:50
00:556,7 °C 5,6 °C 5,6 °C 84 % 1034,4 hPa 0,0 mm - 3,2 km/h 6,5 km/h NO 0,0 W/qm 0,0 nein 00:55
01:006,7 °C 5,6 °C 5,6 °C 84 % 1034,4 hPa 0,0 mm - 3,2 km/h 6,5 km/h NO 0,0 W/qm 0,0 nein 01:00
01:056,7 °C 5,6 °C 5,6 °C 85 % 1034,5 hPa 0,0 mm 0,0 mm 1,4 km/h 7,9 km/h NO 0,0 W/qm 0,0 nein 01:05
01:106,7 °C 5,6 °C 5,6 °C 85 % 1034,5 hPa 0,0 mm 0,0 mm 3,2 km/h 9,7 km/h O 0,0 W/qm 0,0 nein 01:10
01:156,7 °C 5,6 °C 5,6 °C 85 % 1034,6 hPa 0,0 mm - 3,2 km/h 9,7 km/h ONO 0,0 W/qm 0,0 nein 01:15
01:206,7 °C 5,6 °C 5,6 °C 85 % 1034,6 hPa 0,0 mm - 3,2 km/h 9,7 km/h ONO 0,0 W/qm 0,0 nein 01:20
01:256,7 °C 5,6 °C 5,6 °C 85 % 1034,6 hPa 0,0 mm - 3,2 km/h 11,2 km/h ONO 0,0 W/qm 0,0 nein 01:25
01:306,7 °C 5,6 °C 5,6 °C 85 % 1034,7 hPa 0,0 mm - 1,4 km/h 11,2 km/h ONO 0,0 W/qm 0,0 nein 01:30
01:356,7 °C 5,6 °C 5,6 °C 85 % 1034,6 hPa 0,0 mm - 1,4 km/h 11,2 km/h ONO 0,0 W/qm 0,0 nein 01:35
01:406,6 °C 5,6 °C 5,6 °C 85 % 1034,7 hPa 0,0 mm - 1,4 km/h 6,5 km/h ONO 0,0 W/qm 0,0 nein 01:40
01:456,6 °C 5,6 °C 5,6 °C 85 % 1034,7 hPa 0,0 mm - 3,2 km/h 7,9 km/h NO 0,0 W/qm 0,0 nein 01:45
01:506,6 °C 5,6 °C 5,6 °C 85 % 1034,7 hPa 0,0 mm - 4,7 km/h 7,9 km/h NO 0,0 W/qm 0,0 nein 01:50
01:556,6 °C 5,6 °C 5,6 °C 85 % 1034,8 hPa 0,0 mm - 4,7 km/h 7,9 km/h NO 0,0 W/qm 0,0 nein 01:55
UhrzeitTemperaturBoden 10cmBoden 20cmFeuchteLuftdruckNiederschlagEvapotranspirationWindWindböenWindrichtungSolarstrahlungUV-IndexSonne?Uhrzeit
02:006,6 °C 5,6 °C 5,6 °C 85 % 1034,8 hPa 0,0 mm - 6,5 km/h 11,2 km/h NO 0,0 W/qm 0,0 nein 02:00
02:056,6 °C 5,6 °C 5,6 °C 85 % 1034,8 hPa 0,0 mm 0,0 mm 6,5 km/h 14,4 km/h NO 0,0 W/qm 0,0 nein 02:05
02:106,6 °C 5,6 °C 5,6 °C 85 % 1034,8 hPa 0,0 mm 0,0 mm 6,5 km/h 14,4 km/h NO 0,0 W/qm 0,0 nein 02:10
02:156,6 °C 5,6 °C 5,6 °C 85 % 1034,8 hPa 0,0 mm - 7,9 km/h 20,9 km/h NNO 0,0 W/qm 0,0 nein 02:15
02:206,6 °C 5,6 °C 5,6 °C 85 % 1034,8 hPa 0,0 mm - 9,7 km/h 20,9 km/h NO 0,0 W/qm 0,0 nein 02:20
02:256,6 °C 5,6 °C 5,6 °C 84 % 1034,9 hPa 0,0 mm - 9,7 km/h 20,9 km/h NO 0,0 W/qm 0,0 nein 02:25
02:306,6 °C 5,6 °C 5,6 °C 84 % 1034,9 hPa 0,0 mm - 9,7 km/h 17,6 km/h NO 0,0 W/qm 0,0 nein 02:30
02:356,6 °C 5,6 °C 5,6 °C 84 % 1034,9 hPa 0,0 mm - 7,9 km/h 17,6 km/h NO 0,0 W/qm 0,0 nein 02:35
02:406,6 °C 5,6 °C 5,6 °C 84 % 1034,9 hPa 0,0 mm - 7,9 km/h 17,6 km/h NO 0,0 W/qm 0,0 nein 02:40
02:456,5 °C 5,6 °C 5,6 °C 85 % 1034,9 hPa 0,0 mm - 7,9 km/h 14,4 km/h ONO 0,0 W/qm 0,0 nein 02:45
02:506,5 °C 5,6 °C 5,6 °C 85 % 1034,9 hPa 0,0 mm - 7,9 km/h 14,4 km/h NO 0,0 W/qm 0,0 nein 02:50
02:556,4 °C 5,6 °C 5,6 °C 85 % 1035,1 hPa 0,0 mm - 9,7 km/h 16,2 km/h ONO 0,0 W/qm 0,0 nein 02:55
03:006,4 °C 5,6 °C 5,6 °C 85 % 1035,1 hPa 0,0 mm - 9,7 km/h 17,6 km/h ONO 0,0 W/qm 0,0 nein 03:00
03:056,3 °C 5,6 °C 5,6 °C 85 % 1035,2 hPa 0,0 mm 0,0 mm 9,7 km/h 17,6 km/h NO 0,0 W/qm 0,0 nein 03:05
03:106,3 °C 5,6 °C 5,6 °C 85 % 1035,3 hPa 0,0 mm 0,0 mm 9,7 km/h 17,6 km/h NO 0,0 W/qm 0,0 nein 03:10
03:156,3 °C 5,6 °C 5,6 °C 85 % 1035,3 hPa 0,0 mm - 9,7 km/h 16,2 km/h NO 0,0 W/qm 0,0 nein 03:15
03:206,3 °C 5,6 °C 5,6 °C 85 % 1035,4 hPa 0,0 mm - 9,7 km/h 16,2 km/h NO 0,0 W/qm 0,0 nein 03:20
03:256,2 °C 5,6 °C 5,6 °C 85 % 1035,4 hPa 0,0 mm - 7,9 km/h 17,6 km/h NO 0,0 W/qm 0,0 nein 03:25
03:306,2 °C 5,6 °C 5,6 °C 85 % 1035,4 hPa 0,0 mm - 7,9 km/h 17,6 km/h O 0,0 W/qm 0,0 nein 03:30
03:356,2 °C 5,6 °C 5,6 °C 85 % 1035,4 hPa 0,0 mm - 7,9 km/h 17,6 km/h NW 0,0 W/qm 0,0 nein 03:35
03:406,2 °C 5,6 °C 5,6 °C 85 % 1035,4 hPa 0,0 mm - 7,9 km/h 14,4 km/h NO 0,0 W/qm 0,0 nein 03:40
03:456,2 °C 5,6 °C 5,6 °C 86 % 1035,5 hPa 0,0 mm - 7,9 km/h 14,4 km/h ONO 0,0 W/qm 0,0 nein 03:45
03:506,2 °C 5,6 °C 5,6 °C 86 % 1035,5 hPa 0,0 mm - 7,9 km/h 13,0 km/h NNW 0,0 W/qm 0,0 nein 03:50
03:556,2 °C 5,6 °C 5,6 °C 86 % 1035,4 hPa 0,0 mm - 7,9 km/h 14,4 km/h NNO 0,0 W/qm 0,0 nein 03:55
UhrzeitTemperaturBoden 10cmBoden 20cmFeuchteLuftdruckNiederschlagEvapotranspirationWindWindböenWindrichtungSolarstrahlungUV-IndexSonne?Uhrzeit
04:006,1 °C 5,6 °C 5,6 °C 86 % 1035,5 hPa 0,0 mm - 7,9 km/h 14,4 km/h NO 0,0 W/qm 0,0 nein 04:00
04:056,2 °C 5,6 °C 5,6 °C 86 % 1035,7 hPa 0,0 mm 0,1 mm 6,5 km/h 14,4 km/h ONO 0,0 W/qm 0,0 nein 04:05
04:106,1 °C 5,6 °C 5,6 °C 86 % 1035,7 hPa 0,0 mm 0,1 mm 6,5 km/h 14,4 km/h NO 0,0 W/qm 0,0 nein 04:10
04:156,1 °C 5,6 °C 5,6 °C 86 % 1035,8 hPa 0,0 mm - 6,5 km/h 14,4 km/h NNO 0,0 W/qm 0,0 nein 04:15
04:206,1 °C 5,6 °C 5,6 °C 86 % 1035,9 hPa 0,0 mm - 7,9 km/h 14,4 km/h NO 0,0 W/qm 0,0 nein 04:20
04:256,1 °C 5,6 °C 5,6 °C 86 % 1035,9 hPa 0,0 mm - 7,9 km/h 17,6 km/h ONO 0,0 W/qm 0,0 nein 04:25
04:306,1 °C 5,6 °C 5,6 °C 86 % 1036,1 hPa 0,0 mm - 6,5 km/h 17,6 km/h NNO 0,0 W/qm 0,0 nein 04:30
04:356,1 °C 5,6 °C 5,6 °C 86 % 1036,2 hPa 0,0 mm - 6,5 km/h 17,6 km/h NNO 0,0 W/qm 0,0 nein 04:35
04:406,0 °C 5,6 °C 5,6 °C 86 % 1036,3 hPa 0,0 mm - 6,5 km/h 13,0 km/h NNO 0,0 W/qm 0,0 nein 04:40
04:456,0 °C 5,6 °C 5,6 °C 86 % 1036,4 hPa 0,0 mm - 7,9 km/h 17,6 km/h NO 0,0 W/qm 0,0 nein 04:45
04:505,9 °C 5,6 °C 5,6 °C 86 % 1036,4 hPa 0,0 mm - 7,9 km/h 17,6 km/h NO 0,0 W/qm 0,0 nein 04:50
04:555,9 °C 5,6 °C 5,6 °C 86 % 1036,5 hPa 0,0 mm - 7,9 km/h 16,2 km/h NNW 0,0 W/qm 0,0 nein 04:55
05:005,9 °C 5,6 °C 5,6 °C 85 % 1036,5 hPa 0,0 mm - 7,9 km/h 16,2 km/h NO 0,0 W/qm 0,0 nein 05:00
05:055,8 °C 5,6 °C 5,6 °C 85 % 1036,6 hPa 0,0 mm 0,1 mm 7,9 km/h 16,2 km/h ONO 0,0 W/qm 0,0 nein 05:05
05:105,8 °C 5,6 °C 5,6 °C 86 % 1036,6 hPa 0,0 mm 0,1 mm 7,9 km/h 17,6 km/h NO 0,0 W/qm 0,0 nein 05:10
05:155,8 °C 5,6 °C 5,6 °C 86 % 1036,7 hPa 0,0 mm - 7,9 km/h 17,6 km/h NO 0,0 W/qm 0,0 nein 05:15
05:205,8 °C 5,6 °C 5,6 °C 86 % 1036,8 hPa 0,0 mm - 6,5 km/h 17,6 km/h ONO 0,0 W/qm 0,0 nein 05:20
05:255,7 °C 5,6 °C 5,6 °C 86 % 1036,8 hPa 0,0 mm - 4,7 km/h 14,4 km/h NO 0,0 W/qm 0,0 nein 05:25
05:305,7 °C 5,6 °C 5,6 °C 86 % 1036,8 hPa 0,0 mm - 6,5 km/h 13,0 km/h ONO 0,0 W/qm 0,0 nein 05:30
05:355,7 °C 5,6 °C 5,6 °C 86 % 1036,9 hPa 0,0 mm - 7,9 km/h 13,0 km/h ONO 0,0 W/qm 0,0 nein 05:35
05:405,7 °C 5,6 °C 5,6 °C 86 % 1037,0 hPa 0,0 mm - 7,9 km/h 14,4 km/h NO 0,0 W/qm 0,0 nein 05:40
05:455,6 °C 5,6 °C 5,6 °C 86 % 1037,2 hPa 0,0 mm - 7,9 km/h 14,4 km/h NO 0,0 W/qm 0,0 nein 05:45
05:505,6 °C 5,6 °C 5,6 °C 86 % 1037,2 hPa 0,0 mm - 7,9 km/h 14,4 km/h O 0,0 W/qm 0,0 nein 05:50
05:555,6 °C 5,6 °C 5,6 °C 86 % 1037,3 hPa 0,0 mm - 7,9 km/h 14,4 km/h NO 0,0 W/qm 0,0 nein 05:55
UhrzeitTemperaturBoden 10cmBoden 20cmFeuchteLuftdruckNiederschlagEvapotranspirationWindWindböenWindrichtungSolarstrahlungUV-IndexSonne?Uhrzeit
06:005,6 °C 5,6 °C 5,6 °C 86 % 1037,3 hPa 0,0 mm - 7,9 km/h 14,4 km/h ONO 0,0 W/qm 0,0 nein 06:00
06:055,6 °C 5,6 °C 5,6 °C 86 % 1037,4 hPa 0,0 mm 0,1 mm 7,9 km/h 14,4 km/h ONO 0,0 W/qm 0,0 nein 06:05
06:105,5 °C 5,6 °C 5,6 °C 86 % 1037,4 hPa 0,0 mm 0,1 mm 7,9 km/h 17,6 km/h ONO 0,0 W/qm 0,0 nein 06:10
06:155,5 °C 5,6 °C 5,6 °C 86 % 1037,4 hPa 0,0 mm - 7,9 km/h 17,6 km/h NO 0,0 W/qm 0,0 nein 06:15
06:205,4 °C 5,6 °C 5,6 °C 86 % 1037,5 hPa 0,0 mm - 6,5 km/h 17,6 km/h NO 0,0 W/qm 0,0 nein 06:20
06:255,4 °C 5,6 °C 5,6 °C 87 % 1037,5 hPa 0,0 mm - 6,5 km/h 16,2 km/h NO 0,0 W/qm 0,0 nein 06:25
06:305,4 °C 5,0 °C 5,6 °C 87 % 1037,6 hPa 0,0 mm - 7,9 km/h 16,2 km/h NO 0,0 W/qm 0,0 nein 06:30
06:355,4 °C 5,0 °C 5,6 °C 87 % 1037,7 hPa 0,0 mm - 7,9 km/h 14,4 km/h N 5,0 W/qm 0,0 nein 06:35
06:405,3 °C 5,0 °C 5,6 °C 87 % 1037,8 hPa 0,0 mm - 6,5 km/h 14,4 km/h ONO 9,0 W/qm 0,0 nein 06:40
06:455,3 °C 5,0 °C 5,6 °C 87 % 1037,9 hPa 0,0 mm - 6,5 km/h 14,4 km/h ONO 11,0 W/qm 0,0 nein 06:45
06:505,3 °C 5,0 °C 5,6 °C 87 % 1037,9 hPa 0,0 mm - 7,9 km/h 14,4 km/h NO 12,0 W/qm 0,0 nein 06:50
06:555,3 °C 5,0 °C 5,6 °C 87 % 1038,0 hPa 0,0 mm - 7,9 km/h 14,4 km/h NO 16,0 W/qm 0,0 nein 06:55
07:005,3 °C 5,0 °C 5,6 °C 87 % 1038,1 hPa 0,0 mm - 7,9 km/h 14,4 km/h ONO 18,0 W/qm 0,0 nein 07:00
07:055,3 °C 5,0 °C 5,6 °C 87 % 1038,0 hPa 0,0 mm 0,1 mm 6,5 km/h 16,2 km/h NO 23,0 W/qm 0,0 nein 07:05
07:105,3 °C 5,0 °C 5,6 °C 87 % 1038,2 hPa 0,0 mm 0,1 mm 6,5 km/h 16,2 km/h NO 26,0 W/qm 0,0 nein 07:10
07:155,3 °C 5,0 °C 5,6 °C 87 % 1038,2 hPa 0,0 mm - 6,5 km/h 14,4 km/h NO 30,0 W/qm 0,0 nein 07:15
07:205,3 °C 5,0 °C 5,6 °C 87 % 1038,2 hPa 0,0 mm - 7,9 km/h 14,4 km/h NO 35,0 W/qm 0,0 nein 07:20
07:255,3 °C 5,0 °C 5,6 °C 87 % 1038,3 hPa 0,0 mm - 7,9 km/h 14,4 km/h NO 40,0 W/qm 0,0 nein 07:25
07:305,3 °C 5,0 °C 5,6 °C 86 % 1038,3 hPa 0,0 mm - 7,9 km/h 16,2 km/h NNO 49,0 W/qm 0,0 nein 07:30
07:355,3 °C 5,0 °C 5,6 °C 86 % 1038,3 hPa 0,0 mm - 6,5 km/h 16,2 km/h NO 54,0 W/qm 0,0 nein 07:35
07:405,3 °C 5,0 °C 5,6 °C 87 % 1038,4 hPa 0,0 mm - 7,9 km/h 16,2 km/h O 60,0 W/qm 0,0 nein 07:40
07:455,3 °C 5,0 °C 5,6 °C 86 % 1038,7 hPa 0,0 mm - 7,9 km/h 16,2 km/h ONO 65,0 W/qm 0,0 nein 07:45
07:505,3 °C 5,0 °C 5,6 °C 86 % 1038,8 hPa 0,0 mm - 7,9 km/h 16,2 km/h NO 70,0 W/qm 0,0 nein 07:50
07:555,3 °C 5,0 °C 5,6 °C 87 % 1038,8 hPa 0,0 mm - 9,7 km/h 14,4 km/h NO 79,0 W/qm 0,0 nein 07:55
UhrzeitTemperaturBoden 10cmBoden 20cmFeuchteLuftdruckNiederschlagEvapotranspirationWindWindböenWindrichtungSolarstrahlungUV-IndexSonne?Uhrzeit
08:005,4 °C 5,0 °C 5,6 °C 86 % 1038,7 hPa 0,0 mm - 9,7 km/h 20,9 km/h N 97,0 W/qm 0,0 nein 08:00
08:055,4 °C 5,0 °C 5,6 °C 86 % 1038,7 hPa 0,0 mm 0,1 mm 7,9 km/h 20,9 km/h O 104,0 W/qm 0,0 nein 08:05
08:105,5 °C 5,0 °C 5,0 °C 86 % 1038,7 hPa 0,0 mm 0,1 mm 7,9 km/h 20,9 km/h ONO 109,0 W/qm 0,0 nein 08:10
08:155,5 °C 5,0 °C 5,0 °C 86 % 1038,8 hPa 0,0 mm - 7,9 km/h 16,2 km/h NO 123,0 W/qm 0,0 nein 08:15
08:205,6 °C 5,0 °C 5,0 °C 86 % 1038,8 hPa 0,0 mm - 7,9 km/h 16,2 km/h ONO 148,0 W/qm 0,0 nein 08:20
08:255,6 °C 5,0 °C 5,6 °C 86 % 1038,9 hPa 0,0 mm - 9,7 km/h 16,2 km/h ONO 158,0 W/qm 0,0 nein 08:25
08:305,6 °C 5,0 °C 5,0 °C 86 % 1038,9 hPa 0,0 mm - 9,7 km/h 16,2 km/h ONO 169,0 W/qm 0,0 nein 08:30
08:355,7 °C 5,0 °C 5,0 °C 85 % 1038,9 hPa 0,0 mm - 9,7 km/h 16,2 km/h NO 176,0 W/qm 0,0 nein 08:35
08:405,7 °C 5,0 °C 5,0 °C 85 % 1039,1 hPa 0,0 mm - 13,0 km/h 20,9 km/h NNO 179,0 W/qm 0,0 nein 08:40
08:455,7 °C 5,0 °C 5,0 °C 85 % 1039,1 hPa 0,0 mm - 13,0 km/h 20,9 km/h NO 186,0 W/qm 0,0 nein 08:45
08:505,7 °C 5,0 °C 5,0 °C 85 % 1039,1 hPa 0,0 mm - 11,2 km/h 20,9 km/h NO 192,0 W/qm 0,5 nein 08:50
08:555,7 °C 5,0 °C 5,0 °C 85 % 1039,2 hPa 0,0 mm - 13,0 km/h 19,4 km/h ONO 204,0 W/qm 0,5 nein 08:55
09:005,8 °C 5,0 °C 5,0 °C 85 % 1039,3 hPa 0,0 mm - 13,0 km/h 22,7 km/h NNW 195,0 W/qm 0,5 nein 09:00
09:055,9 °C 5,0 °C 5,0 °C 85 % 1039,4 hPa 0,0 mm 0,2 mm 11,2 km/h 22,7 km/h ONO 186,0 W/qm 0,5 nein 09:05
09:105,9 °C 5,0 °C 5,0 °C 84 % 1039,4 hPa 0,0 mm 0,2 mm 9,7 km/h 22,7 km/h ONO 216,0 W/qm 0,5 nein 09:10
09:155,9 °C 5,0 °C 5,0 °C 84 % 1039,4 hPa 0,0 mm - 9,7 km/h 20,9 km/h NO 243,0 W/qm 0,6 nein 09:15
09:206,0 °C 5,0 °C 5,0 °C 84 % 1039,4 hPa 0,0 mm - 9,7 km/h 19,4 km/h NNO 271,0 W/qm 0,6 ja 09:20
09:256,1 °C 5,0 °C 5,0 °C 84 % 1039,6 hPa 0,0 mm - 9,7 km/h 20,9 km/h NO 211,0 W/qm 0,6 nein 09:25
09:306,1 °C 5,0 °C 5,0 °C 84 % 1039,6 hPa 0,0 mm - 11,2 km/h 22,7 km/h ONO 257,0 W/qm 0,7 ja 09:30
09:356,1 °C 5,0 °C 5,0 °C 84 % 1039,7 hPa 0,0 mm - 11,2 km/h 22,7 km/h ONO 251,0 W/qm 0,7 ja 09:35
09:406,2 °C 5,0 °C 5,0 °C 84 % 1039,8 hPa 0,0 mm - 9,7 km/h 22,7 km/h ONO 283,0 W/qm 0,7 ja 09:40
09:456,3 °C 5,0 °C 5,0 °C 84 % 1039,8 hPa 0,0 mm - 9,7 km/h 20,9 km/h N 330,0 W/qm 0,8 ja 09:45
09:506,4 °C 5,0 °C 5,0 °C 83 % 1039,7 hPa 0,0 mm - 9,7 km/h 20,9 km/h NO 309,0 W/qm 0,8 ja 09:50
09:556,5 °C 5,0 °C 5,0 °C 83 % 1039,7 hPa 0,0 mm - 9,7 km/h 16,2 km/h ONO 272,0 W/qm 0,8 ja 09:55
UhrzeitTemperaturBoden 10cmBoden 20cmFeuchteLuftdruckNiederschlagEvapotranspirationWindWindböenWindrichtungSolarstrahlungUV-IndexSonne?Uhrzeit
10:006,7 °C 5,0 °C 5,0 °C 83 % 1039,7 hPa 0,0 mm - 9,7 km/h 19,4 km/h ONO 373,0 W/qm 0,8 ja 10:00
10:056,8 °C 5,0 °C 5,0 °C 82 % 1039,8 hPa 0,0 mm 0,3 mm 7,9 km/h 19,4 km/h NO 323,0 W/qm 0,9 ja 10:05
10:106,9 °C 5,6 °C 5,0 °C 82 % 1039,8 hPa 0,0 mm 0,3 mm 7,9 km/h 17,6 km/h NNO 362,0 W/qm 0,9 ja 10:10
10:156,9 °C 5,6 °C 5,0 °C 82 % 1039,8 hPa 0,0 mm - 9,7 km/h 16,2 km/h ONO 223,0 W/qm 0,6 nein 10:15
10:206,9 °C 5,6 °C 5,0 °C 81 % 1039,7 hPa 0,0 mm - 9,7 km/h 20,9 km/h NO 207,0 W/qm 0,6 nein 10:20
10:256,9 °C 5,6 °C 5,0 °C 81 % 1039,8 hPa 0,0 mm - 9,7 km/h 20,9 km/h NNO 186,0 W/qm 0,6 nein 10:25
10:306,9 °C 5,6 °C 5,0 °C 81 % 1039,9 hPa 0,0 mm - 9,7 km/h 20,9 km/h NO 197,0 W/qm 0,6 nein 10:30
10:356,9 °C 5,6 °C 5,0 °C 81 % 1040,0 hPa 0,0 mm - 7,9 km/h 20,9 km/h NO 251,0 W/qm 0,7 ja 10:35
10:407,0 °C 5,6 °C 5,6 °C 81 % 1040,1 hPa 0,0 mm - 7,9 km/h 20,9 km/h NW 332,0 W/qm 0,8 ja 10:40
10:457,1 °C 5,6 °C 5,6 °C 81 % 1040,1 hPa 0,0 mm - 9,7 km/h 20,9 km/h NNO 316,0 W/qm 0,8 ja 10:45
10:507,2 °C 5,6 °C 5,6 °C 81 % 1040,0 hPa 0,0 mm - 9,7 km/h 20,9 km/h N 378,0 W/qm 1,0 ja 10:50
10:557,6 °C 5,6 °C 5,6 °C 81 % 1040,0 hPa 0,0 mm - 9,7 km/h 20,9 km/h ONO 533,0 W/qm 1,3 ja 10:55
11:007,7 °C 5,6 °C 5,6 °C 79 % 1040,0 hPa 0,0 mm - 7,9 km/h 19,4 km/h NNO 450,0 W/qm 1,2 ja 11:00
11:057,9 °C 5,6 °C 5,6 °C 80 % 1040,0 hPa 0,0 mm 0,5 mm 7,9 km/h 24,1 km/h ONO 403,0 W/qm 1,2 ja 11:05
11:108,0 °C 5,6 °C 5,6 °C 78 % 1040,0 hPa 0,0 mm 0,5 mm 9,7 km/h 24,1 km/h NO 345,0 W/qm 1,0 ja 11:10
11:157,9 °C 5,6 °C 5,6 °C 78 % 1040,0 hPa 0,0 mm - 9,7 km/h 24,1 km/h NO 297,0 W/qm 1,0 ja 11:15
11:207,8 °C 5,6 °C 5,6 °C 78 % 1040,1 hPa 0,0 mm - 9,7 km/h 20,9 km/h NO 371,0 W/qm 1,0 ja 11:20
11:257,6 °C 5,6 °C 5,6 °C 77 % 1040,1 hPa 0,0 mm - 7,9 km/h 20,9 km/h N 265,0 W/qm 1,1 ja 11:25
11:307,7 °C 5,6 °C 5,6 °C 78 % 1040,1 hPa 0,0 mm - 7,9 km/h 20,9 km/h ONO 276,0 W/qm 1,1 ja 11:30
11:357,8 °C 5,6 °C 5,6 °C 77 % 1040,2 hPa 0,0 mm - 9,7 km/h 19,4 km/h NO 345,0 W/qm 1,2 ja 11:35
11:408,1 °C 5,6 °C 5,6 °C 78 % 1040,0 hPa 0,0 mm - 11,2 km/h 19,4 km/h ONO 345,0 W/qm 1,3 ja 11:40
11:458,3 °C 5,6 °C 5,6 °C 77 % 1040,0 hPa 0,0 mm - 11,2 km/h 19,4 km/h ONO 302,0 W/qm 1,1 ja 11:45
11:508,2 °C 5,6 °C 5,6 °C 76 % 1040,0 hPa 0,0 mm - 9,7 km/h 20,9 km/h NW 271,0 W/qm 1,0 ja 11:50
11:558,1 °C 5,6 °C 5,6 °C 76 % 1040,0 hPa 0,0 mm - 9,7 km/h 24,1 km/h NO 311,0 W/qm 1,1 ja 11:55
UhrzeitTemperaturBoden 10cmBoden 20cmFeuchteLuftdruckNiederschlagEvapotranspirationWindWindböenWindrichtungSolarstrahlungUV-IndexSonne?Uhrzeit
12:008,3 °C 5,6 °C 5,6 °C 78 % 1040,0 hPa 0,0 mm - 6,5 km/h 24,1 km/h O 262,0 W/qm 1,0 ja 12:00
12:058,3 °C 5,6 °C 5,6 °C 76 % 1040,1 hPa 0,0 mm 0,6 mm 7,9 km/h 20,9 km/h ONO 287,0 W/qm 1,2 ja 12:05
12:108,6 °C 5,6 °C 5,6 °C 76 % 1039,9 hPa 0,0 mm 0,6 mm 9,7 km/h 17,6 km/h NO 427,0 W/qm 1,4 ja 12:10
12:158,8 °C 5,6 °C 5,6 °C 75 % 1039,9 hPa 0,0 mm - 9,7 km/h 17,6 km/h N 422,0 W/qm 1,3 ja 12:15
12:208,8 °C 5,6 °C 5,6 °C 75 % 1040,0 hPa 0,0 mm - 9,7 km/h 20,9 km/h NO 302,0 W/qm 1,1 ja 12:20
12:258,8 °C 5,6 °C 5,6 °C 75 % 1039,9 hPa 0,0 mm - 7,9 km/h 20,9 km/h ONO 339,0 W/qm 1,2 ja 12:25
12:309,3 °C 5,6 °C 5,6 °C 75 % 1039,8 hPa 0,0 mm - 7,9 km/h 20,9 km/h NO 710,0 W/qm 1,7 ja 12:30
12:359,5 °C 5,6 °C 5,6 °C 74 % 1039,8 hPa 0,0 mm - 9,7 km/h 17,6 km/h ONO 596,0 W/qm 1,6 ja 12:35
12:409,6 °C 5,6 °C 5,6 °C 73 % 1039,8 hPa 0,0 mm - 9,7 km/h 17,6 km/h NNO 413,0 W/qm 1,7 ja 12:40
12:459,6 °C 5,6 °C 5,6 °C 73 % 1039,8 hPa 0,0 mm - 11,2 km/h 20,9 km/h ONO 403,0 W/qm 1,3 ja 12:45
12:509,8 °C 5,6 °C 5,6 °C 73 % 1039,7 hPa 0,0 mm - 11,2 km/h 22,7 km/h NNO 745,0 W/qm 1,4 ja 12:50
12:559,8 °C 5,6 °C 5,6 °C 73 % 1039,6 hPa 0,0 mm - 11,2 km/h 24,1 km/h NNW 417,0 W/qm 1,7 ja 12:55
13:0010,2 °C 5,6 °C 5,6 °C 72 % 1039,5 hPa 0,0 mm - 9,7 km/h 24,1 km/h NO 652,0 W/qm 1,6 ja 13:00
13:0510,1 °C 5,6 °C 5,6 °C 71 % 1039,5 hPa 0,0 mm 0,9 mm 11,2 km/h 24,1 km/h NO 355,0 W/qm 1,7 ja 13:05
13:1010,3 °C 5,6 °C 5,6 °C 72 % 1039,6 hPa 0,0 mm 0,9 mm 11,2 km/h 25,9 km/h NNO 749,0 W/qm 1,8 ja 13:10
13:1510,2 °C 5,6 °C 5,6 °C 70 % 1039,6 hPa 0,0 mm - 11,2 km/h 25,9 km/h ONO 680,0 W/qm 1,4 ja 13:15
13:2010,2 °C 5,6 °C 5,6 °C 70 % 1039,6 hPa 0,0 mm - 14,4 km/h 25,9 km/h NO 608,0 W/qm 1,3 ja 13:20
13:2510,2 °C 5,6 °C 5,6 °C 69 % 1039,5 hPa 0,0 mm - 13,0 km/h 28,8 km/h ONO 559,0 W/qm 1,5 ja 13:25
13:3010,3 °C 5,6 °C 5,6 °C 70 % 1039,5 hPa 0,0 mm - 9,7 km/h 28,8 km/h NNW 596,0 W/qm 1,5 ja 13:30
13:3510,2 °C 5,6 °C 5,6 °C 69 % 1039,5 hPa 0,0 mm - 9,7 km/h 24,1 km/h NO 541,0 W/qm 1,4 ja 13:35
13:4010,4 °C 6,1 °C 5,6 °C 70 % 1039,6 hPa 0,0 mm - 11,2 km/h 22,7 km/h NNO 582,0 W/qm 1,4 ja 13:40
13:4510,3 °C 6,1 °C 5,6 °C 69 % 1039,6 hPa 0,0 mm - 14,4 km/h 22,7 km/h NO 492,0 W/qm 1,3 ja 13:45
13:5010,3 °C 6,1 °C 5,6 °C 69 % 1039,6 hPa 0,0 mm - 13,0 km/h 27,4 km/h ONO 425,0 W/qm 1,3 ja 13:50
13:5510,3 °C 6,1 °C 5,6 °C 70 % 1039,6 hPa 0,0 mm - 9,7 km/h 27,4 km/h NNO 533,0 W/qm 1,4 ja 13:55
UhrzeitTemperaturBoden 10cmBoden 20cmFeuchteLuftdruckNiederschlagEvapotranspirationWindWindböenWindrichtungSolarstrahlungUV-IndexSonne?Uhrzeit
14:0010,5 °C 6,1 °C 5,6 °C 68 % 1039,5 hPa 0,0 mm - 9,7 km/h 27,4 km/h O 318,0 W/qm 1,1 ja 14:00
14:0510,4 °C 6,1 °C 5,6 °C 69 % 1039,6 hPa 0,0 mm 1,1 mm 9,7 km/h 20,9 km/h NO 244,0 W/qm 0,9 nein 14:05
14:1010,2 °C 6,1 °C 5,6 °C 70 % 1039,6 hPa 0,0 mm 1,1 mm 11,2 km/h 20,9 km/h NO 355,0 W/qm 1,0 ja 14:10
14:1510,1 °C 6,1 °C 5,6 °C 70 % 1039,5 hPa 0,0 mm - 9,7 km/h 20,9 km/h ONO 441,0 W/qm 1,1 ja 14:15
14:2010,1 °C 6,1 °C 5,6 °C 71 % 1039,5 hPa 0,0 mm - 11,2 km/h 20,9 km/h NNO 323,0 W/qm 1,0 ja 14:20
14:259,9 °C 6,1 °C 5,6 °C 71 % 1039,4 hPa 0,0 mm - 11,2 km/h 22,7 km/h ONO 359,0 W/qm 1,0 ja 14:25
14:3010,0 °C 6,1 °C 5,6 °C 71 % 1039,4 hPa 0,0 mm - 11,2 km/h 24,1 km/h N 287,0 W/qm 1,0 ja 14:30
14:359,9 °C 6,1 °C 5,6 °C 70 % 1039,4 hPa 0,0 mm - 9,7 km/h 24,1 km/h ONO 352,0 W/qm 1,0 ja 14:35
14:409,9 °C 6,1 °C 5,6 °C 70 % 1039,5 hPa 0,0 mm - 11,2 km/h 24,1 km/h NO 443,0 W/qm 1,1 ja 14:40
14:4510,1 °C 6,1 °C 5,6 °C 71 % 1039,4 hPa 0,0 mm - 9,7 km/h 24,1 km/h NNO 489,0 W/qm 1,1 ja 14:45
14:5010,3 °C 6,1 °C 5,6 °C 70 % 1039,4 hPa 0,0 mm - 9,7 km/h 24,1 km/h NO 380,0 W/qm 1,0 ja 14:50
14:5510,3 °C 6,1 °C 5,6 °C 71 % 1039,3 hPa 0,0 mm - 9,7 km/h 24,1 km/h NO 411,0 W/qm 1,0 ja 14:55
15:0010,3 °C 6,1 °C 5,6 °C 70 % 1039,3 hPa 0,0 mm - 9,7 km/h 22,7 km/h NO 322,0 W/qm 0,9 ja 15:00
15:0510,3 °C 6,1 °C 5,6 °C 69 % 1039,3 hPa 0,0 mm 1,4 mm 9,7 km/h 22,7 km/h NO 322,0 W/qm 0,9 ja 15:05
15:1010,3 °C 6,1 °C 5,6 °C 70 % 1039,3 hPa 0,0 mm 1,4 mm 11,2 km/h 25,9 km/h NNO 271,0 W/qm 0,8 ja 15:10
15:1510,3 °C 6,1 °C 5,6 °C 69 % 1039,2 hPa 0,0 mm - 13,0 km/h 25,9 km/h N 359,0 W/qm 0,8 ja 15:15
15:2010,4 °C 6,1 °C 5,6 °C 69 % 1039,2 hPa 0,0 mm - 13,0 km/h 27,4 km/h NO 272,0 W/qm 0,7 ja 15:20
15:2510,2 °C 6,1 °C 5,6 °C 70 % 1039,2 hPa 0,0 mm - 11,2 km/h 27,4 km/h ONO 281,0 W/qm 0,7 ja 15:25
15:309,8 °C 6,1 °C 5,6 °C 70 % 1039,2 hPa 0,0 mm - 9,7 km/h 27,4 km/h NO 236,0 W/qm 0,6 nein 15:30
15:359,6 °C 6,1 °C 5,6 °C 71 % 1039,3 hPa 0,0 mm - 9,7 km/h 19,4 km/h NNO 193,0 W/qm 0,6 nein 15:35
15:409,4 °C 6,1 °C 5,6 °C 72 % 1039,4 hPa 0,0 mm - 9,7 km/h 20,9 km/h NO 186,0 W/qm 0,5 nein 15:40
15:459,3 °C 6,1 °C 5,6 °C 72 % 1039,3 hPa 0,0 mm - 9,7 km/h 20,9 km/h NNW 186,0 W/qm 0,5 nein 15:45
15:509,1 °C 6,1 °C 5,6 °C 73 % 1039,3 hPa 0,0 mm - 9,7 km/h 20,9 km/h NO 186,0 W/qm 0,5 nein 15:50
15:558,9 °C 6,1 °C 5,6 °C 73 % 1039,4 hPa 0,0 mm - 11,2 km/h 20,9 km/h ONO 193,0 W/qm 0,5 nein 15:55
UhrzeitTemperaturBoden 10cmBoden 20cmFeuchteLuftdruckNiederschlagEvapotranspirationWindWindböenWindrichtungSolarstrahlungUV-IndexSonne?Uhrzeit
16:008,9 °C 6,1 °C 5,6 °C 73 % 1039,4 hPa 0,0 mm - 11,2 km/h 24,1 km/h NO 200,0 W/qm 0,5 nein 16:00
16:058,9 °C 6,1 °C 5,6 °C 74 % 1039,4 hPa 0,0 mm 1,5 mm 7,9 km/h 24,1 km/h N 206,0 W/qm 0,5 nein 16:05
16:108,9 °C 6,1 °C 5,6 °C 74 % 1039,3 hPa 0,0 mm 1,5 mm 9,7 km/h 24,1 km/h ONO 207,0 W/qm 0,5 nein 16:10
16:159,0 °C 6,1 °C 5,6 °C 74 % 1039,3 hPa 0,0 mm - 9,7 km/h 19,4 km/h NO 188,0 W/qm 0,0 nein 16:15
16:209,1 °C 6,1 °C 5,6 °C 74 % 1039,3 hPa 0,0 mm - 9,7 km/h 19,4 km/h NO 193,0 W/qm 0,0 nein 16:20
16:259,1 °C 6,1 °C 5,6 °C 74 % 1039,4 hPa 0,0 mm - 9,7 km/h 20,9 km/h NO 190,0 W/qm 0,0 nein 16:25
16:309,1 °C 6,1 °C 5,6 °C 73 % 1039,5 hPa 0,0 mm - 7,9 km/h 20,9 km/h NNO 186,0 W/qm 0,0 nein 16:30
16:359,2 °C 6,1 °C 5,6 °C 73 % 1039,4 hPa 0,0 mm - 7,9 km/h 16,2 km/h NO 178,0 W/qm 0,0 nein 16:35
16:409,3 °C 6,1 °C 5,6 °C 72 % 1039,5 hPa 0,0 mm - 11,2 km/h 16,2 km/h NNO 190,0 W/qm 0,0 nein 16:40
16:459,3 °C 6,1 °C 5,6 °C 72 % 1039,5 hPa 0,0 mm - 11,2 km/h 20,9 km/h NO 160,0 W/qm 0,0 nein 16:45
16:509,2 °C 6,1 °C 5,6 °C 73 % 1039,5 hPa 0,0 mm - 7,9 km/h 20,9 km/h NW 132,0 W/qm 0,0 nein 16:50
16:559,0 °C 6,1 °C 5,6 °C 73 % 1039,6 hPa 0,0 mm - 9,7 km/h 19,4 km/h NO 139,0 W/qm 0,0 nein 16:55
17:008,9 °C 6,1 °C 5,6 °C 73 % 1039,6 hPa 0,0 mm - 9,7 km/h 20,9 km/h ONO 135,0 W/qm 0,0 nein 17:00
17:058,8 °C 6,1 °C 5,6 °C 74 % 1039,7 hPa 0,0 mm 1,6 mm 6,5 km/h 20,9 km/h ONO 120,0 W/qm 0,0 nein 17:05
17:108,8 °C 6,1 °C 5,6 °C 74 % 1039,7 hPa 0,0 mm 1,6 mm 7,9 km/h 20,9 km/h NO 93,0 W/qm 0,0 nein 17:10
17:158,8 °C 6,1 °C 5,6 °C 74 % 1039,8 hPa 0,0 mm - 6,5 km/h 17,6 km/h ONO 107,0 W/qm 0,0 nein 17:15
17:208,7 °C 6,1 °C 5,6 °C 74 % 1039,8 hPa 0,0 mm - 4,7 km/h 14,4 km/h ONO 97,0 W/qm 0,0 nein 17:20
17:258,7 °C 6,1 °C 5,6 °C 74 % 1039,9 hPa 0,0 mm - 6,5 km/h 14,4 km/h N 84,0 W/qm 0,0 nein 17:25
17:308,7 °C 6,1 °C 5,6 °C 74 % 1039,9 hPa 0,0 mm - 7,9 km/h 13,0 km/h NO 69,0 W/qm 0,0 nein 17:30
17:358,6 °C 6,1 °C 5,6 °C 74 % 1040,0 hPa 0,0 mm - 9,7 km/h 17,6 km/h ONO 58,0 W/qm 0,0 nein 17:35
17:408,5 °C 6,1 °C 5,6 °C 74 % 1040,2 hPa 0,0 mm - 9,7 km/h 17,6 km/h NO 56,0 W/qm 0,0 nein 17:40
17:458,4 °C 6,1 °C 5,6 °C 74 % 1040,2 hPa 0,0 mm - 11,2 km/h 19,4 km/h NO 51,0 W/qm 0,0 nein 17:45
17:508,3 °C 6,1 °C 5,6 °C 75 % 1040,3 hPa 0,0 mm - 9,7 km/h 22,7 km/h NO 44,0 W/qm 0,0 nein 17:50
17:558,1 °C 6,1 °C 5,6 °C 75 % 1040,4 hPa 0,0 mm - 9,7 km/h 22,7 km/h NNO 37,0 W/qm 0,0 nein 17:55
UhrzeitTemperaturBoden 10cmBoden 20cmFeuchteLuftdruckNiederschlagEvapotranspirationWindWindböenWindrichtungSolarstrahlungUV-IndexSonne?Uhrzeit
18:007,9 °C 6,1 °C 5,6 °C 76 % 1040,6 hPa 0,0 mm - 9,7 km/h 17,6 km/h NO 33,0 W/qm 0,0 nein 18:00
18:057,8 °C 6,1 °C 5,6 °C 76 % 1040,7 hPa 0,0 mm 1,7 mm 11,2 km/h 19,4 km/h NO 26,0 W/qm 0,0 nein 18:05
18:107,6 °C 6,1 °C 5,6 °C 76 % 1040,8 hPa 0,0 mm 1,7 mm 13,0 km/h 24,1 km/h NO 21,0 W/qm 0,0 nein 18:10
18:157,4 °C 6,1 °C 5,6 °C 77 % 1040,9 hPa 0,0 mm - 11,2 km/h 24,1 km/h NO 16,0 W/qm 0,0 nein 18:15
18:207,2 °C 6,1 °C 5,6 °C 77 % 1041,1 hPa 0,0 mm - 13,0 km/h 24,1 km/h NO 11,0 W/qm 0,0 nein 18:20
18:256,9 °C 6,1 °C 5,6 °C 78 % 1041,2 hPa 0,0 mm - 13,0 km/h 24,1 km/h ONO 7,0 W/qm 0,0 nein 18:25
18:306,7 °C 6,1 °C 5,6 °C 79 % 1041,4 hPa 0,0 mm - 13,0 km/h 24,1 km/h NO 7,0 W/qm 0,0 nein 18:30
18:356,4 °C 6,1 °C 5,6 °C 79 % 1041,6 hPa 0,0 mm - 14,4 km/h 28,8 km/h ONO 5,0 W/qm 0,0 nein 18:35
18:406,3 °C 6,1 °C 5,6 °C 80 % 1041,7 hPa 0,0 mm - 14,4 km/h 28,8 km/h N 0,0 W/qm 0,0 nein 18:40
18:456,2 °C 6,1 °C 5,6 °C 80 % 1041,8 hPa 0,0 mm - 14,4 km/h 30,6 km/h NO 0,0 W/qm 0,0 nein 18:45
18:506,1 °C 6,1 °C 5,6 °C 81 % 1042,0 hPa 0,0 mm - 11,2 km/h 30,6 km/h N 0,0 W/qm 0,0 nein 18:50
18:555,9 °C 6,1 °C 5,6 °C 81 % 1042,0 hPa 0,0 mm - 13,0 km/h 30,6 km/h NNO 0,0 W/qm 0,0 nein 18:55
19:005,8 °C 6,1 °C 5,6 °C 81 % 1042,0 hPa 0,0 mm - 13,0 km/h 25,9 km/h NO 0,0 W/qm 0,0 nein 19:00
19:055,7 °C 6,1 °C 5,6 °C 82 % 1042,2 hPa 0,0 mm 1,7 mm 13,0 km/h 25,9 km/h NO 0,0 W/qm 0,0 nein 19:05
19:105,7 °C 6,1 °C 5,6 °C 82 % 1042,2 hPa 0,0 mm 1,7 mm 11,2 km/h 22,7 km/h NO 0,0 W/qm 0,0 nein 19:10
19:155,6 °C 6,1 °C 5,6 °C 82 % 1042,4 hPa 0,0 mm - 11,2 km/h 22,7 km/h ONO 0,0 W/qm 0,0 nein 19:15
19:205,5 °C 6,1 °C 5,6 °C 82 % 1042,5 hPa 0,0 mm - 11,2 km/h 19,4 km/h NO 0,0 W/qm 0,0 nein 19:20
19:255,4 °C 6,1 °C 5,6 °C 82 % 1042,5 hPa 0,0 mm - 9,7 km/h 19,4 km/h NO 0,0 W/qm 0,0 nein 19:25
19:305,4 °C 6,1 °C 5,6 °C 83 % 1042,6 hPa 0,0 mm - 7,9 km/h 19,4 km/h NNO 0,0 W/qm 0,0 nein 19:30
19:355,4 °C 6,1 °C 5,6 °C 83 % 1042,6 hPa 0,0 mm - 9,7 km/h 17,6 km/h ONO 0,0 W/qm 0,0 nein 19:35
19:405,4 °C 6,1 °C 6,1 °C 83 % 1042,6 hPa 0,0 mm - 9,7 km/h 17,6 km/h NO 0,0 W/qm 0,0 nein 19:40
19:455,3 °C 6,1 °C 6,1 °C 83 % 1042,6 hPa 0,0 mm - 7,9 km/h 16,2 km/h NO 0,0 W/qm 0,0 nein 19:45
19:505,3 °C 6,1 °C 6,1 °C 83 % 1042,6 hPa 0,0 mm - 7,9 km/h 14,4 km/h NNO 0,0 W/qm 0,0 nein 19:50
19:555,2 °C 6,1 °C 6,1 °C 83 % 1042,5 hPa 0,0 mm - 7,9 km/h 14,4 km/h NO 0,0 W/qm 0,0 nein 19:55
UhrzeitTemperaturBoden 10cmBoden 20cmFeuchteLuftdruckNiederschlagEvapotranspirationWindWindböenWindrichtungSolarstrahlungUV-IndexSonne?Uhrzeit
20:005,1 °C 6,1 °C 6,1 °C 83 % 1042,6 hPa 0,0 mm - 6,5 km/h 14,4 km/h NNO 0,0 W/qm 0,0 nein 20:00
20:055,0 °C 6,1 °C 6,1 °C 83 % 1042,8 hPa 0,0 mm 1,7 mm 6,5 km/h 13,0 km/h NO 0,0 W/qm 0,0 nein 20:05
20:104,8 °C 6,1 °C 6,1 °C 83 % 1042,8 hPa 0,0 mm 1,7 mm 4,7 km/h 13,0 km/h NO 0,0 W/qm 0,0 nein 20:10
20:154,7 °C 6,1 °C 6,1 °C 84 % 1042,7 hPa 0,0 mm - 4,7 km/h 13,0 km/h ONO 0,0 W/qm 0,0 nein 20:15
20:204,4 °C 6,1 °C 6,1 °C 84 % 1042,9 hPa 0,0 mm - 3,2 km/h 11,2 km/h NO 0,0 W/qm 0,0 nein 20:20
20:254,3 °C 6,1 °C 6,1 °C 85 % 1042,9 hPa 0,0 mm - 3,2 km/h 11,2 km/h NO 0,0 W/qm 0,0 nein 20:25
20:304,2 °C 6,1 °C 6,1 °C 85 % 1042,9 hPa 0,0 mm - 3,2 km/h 7,9 km/h NO 0,0 W/qm 0,0 nein 20:30
20:354,2 °C 6,1 °C 6,1 °C 85 % 1042,9 hPa 0,0 mm - 3,2 km/h 7,9 km/h ONO 0,0 W/qm 0,0 nein 20:35
20:404,2 °C 6,1 °C 6,1 °C 85 % 1043,0 hPa 0,0 mm - 4,7 km/h 9,7 km/h NO 0,0 W/qm 0,0 nein 20:40
20:454,2 °C 6,1 °C 6,1 °C 85 % 1043,0 hPa 0,0 mm - 4,7 km/h 14,4 km/h NNO 0,0 W/qm 0,0 nein 20:45
20:504,2 °C 6,1 °C 6,1 °C 85 % 1043,2 hPa 0,0 mm - 4,7 km/h 14,4 km/h NO 0,0 W/qm 0,0 nein 20:50
20:554,2 °C 6,1 °C 6,1 °C 85 % 1043,3 hPa 0,0 mm - 4,7 km/h 14,4 km/h ONO 0,0 W/qm 0,0 nein 20:55
21:003,8 °C 6,1 °C 6,1 °C 85 % 1043,3 hPa 0,0 mm - 3,2 km/h 9,7 km/h ONO 0,0 W/qm 0,0 nein 21:00
21:053,4 °C 6,1 °C 5,6 °C 86 % 1043,4 hPa 0,0 mm 1,7 mm 1,4 km/h 7,9 km/h NO 0,0 W/qm 0,0 nein 21:05
21:103,3 °C 6,1 °C 5,6 °C 87 % 1043,3 hPa 0,0 mm 1,7 mm 1,4 km/h 6,5 km/h ONO 0,0 W/qm 0,0 nein 21:10
21:153,4 °C 6,1 °C 5,6 °C 87 % 1043,4 hPa 0,0 mm - 1,4 km/h 4,7 km/h NO 0,0 W/qm 0,0 nein 21:15
21:203,3 °C 6,1 °C 5,6 °C 87 % 1043,4 hPa 0,0 mm - 1,4 km/h 7,9 km/h ONO 0,0 W/qm 0,0 nein 21:20
21:253,4 °C 6,1 °C 5,6 °C 87 % 1043,4 hPa 0,0 mm - 1,4 km/h 7,9 km/h NO 0,0 W/qm 0,0 nein 21:25
21:303,3 °C 6,1 °C 5,6 °C 87 % 1043,4 hPa 0,0 mm - 1,4 km/h 7,9 km/h NNO 0,0 W/qm 0,0 nein 21:30
21:353,2 °C 6,1 °C 5,6 °C 87 % 1043,5 hPa 0,0 mm - 1,4 km/h 6,5 km/h NNO 0,0 W/qm 0,0 nein 21:35
21:403,2 °C 6,1 °C 5,6 °C 88 % 1043,6 hPa 0,0 mm - 1,4 km/h 6,5 km/h NO 0,0 W/qm 0,0 nein 21:40
21:453,3 °C 6,1 °C 5,6 °C 88 % 1043,5 hPa 0,0 mm - 1,4 km/h 6,5 km/h N 0,0 W/qm 0,0 nein 21:45
21:503,2 °C 6,1 °C 5,6 °C 88 % 1043,6 hPa 0,0 mm - 1,4 km/h 6,5 km/h NO 0,0 W/qm 0,0 nein 21:50
21:553,3 °C 6,1 °C 5,6 °C 88 % 1043,5 hPa 0,0 mm - 1,4 km/h 6,5 km/h NO 0,0 W/qm 0,0 nein 21:55
UhrzeitTemperaturBoden 10cmBoden 20cmFeuchteLuftdruckNiederschlagEvapotranspirationWindWindböenWindrichtungSolarstrahlungUV-IndexSonne?Uhrzeit
22:003,2 °C 6,1 °C 5,6 °C 88 % 1043,7 hPa 0,0 mm - 1,4 km/h 6,5 km/h NO 0,0 W/qm 0,0 nein 22:00
22:05- - - - - 0,0 mm - - 6,5 km/h - - - nein 22:05
22:102,9 °C 5,6 °C 5,6 °C 88 % 1043,8 hPa 0,0 mm 1,7 mm 1,4 km/h 6,5 km/h NO 0,0 W/qm 0,0 nein 22:10
22:153,0 °C 5,6 °C 5,6 °C 88 % 1043,8 hPa 0,0 mm - 3,2 km/h 4,7 km/h ONO 0,0 W/qm 0,0 nein 22:15
22:203,1 °C 5,6 °C 5,6 °C 88 % 1043,7 hPa 0,0 mm - 4,7 km/h 7,9 km/h NO 0,0 W/qm 0,0 nein 22:20
22:253,2 °C 5,6 °C 5,6 °C 88 % 1043,8 hPa 0,0 mm - 4,7 km/h 7,9 km/h NO 0,0 W/qm 0,0 nein 22:25
22:303,2 °C 5,6 °C 5,6 °C 88 % 1043,8 hPa 0,0 mm - 4,7 km/h 7,9 km/h NO 0,0 W/qm 0,0 nein 22:30
22:353,3 °C 5,6 °C 5,6 °C 88 % 1043,9 hPa 0,0 mm - 6,5 km/h 7,9 km/h ONO 0,0 W/qm 0,0 nein 22:35
22:403,5 °C 5,6 °C 5,6 °C 88 % 1043,6 hPa 0,0 mm - 6,5 km/h 9,7 km/h NO 0,0 W/qm 0,0 nein 22:40
22:453,6 °C 5,6 °C 5,6 °C 87 % 1043,6 hPa 0,0 mm - 6,5 km/h 13,0 km/h NO 0,0 W/qm 0,0 nein 22:45
22:503,7 °C 5,6 °C 5,6 °C 87 % 1043,7 hPa 0,0 mm - 6,5 km/h 13,0 km/h NO 0,0 W/qm 0,0 nein 22:50
22:553,8 °C 5,6 °C 5,6 °C 87 % 1043,6 hPa 0,0 mm - 6,5 km/h 13,0 km/h NO 0,0 W/qm 0,0 nein 22:55
23:003,8 °C 5,6 °C 5,6 °C 86 % 1043,6 hPa 0,0 mm - 6,5 km/h 11,2 km/h NO 0,0 W/qm 0,0 nein 23:00
23:053,7 °C 5,6 °C 5,6 °C 86 % 1043,6 hPa 0,0 mm 1,7 mm 4,7 km/h 9,7 km/h ONO 0,0 W/qm 0,0 nein 23:05
23:103,6 °C 5,6 °C 5,6 °C 86 % 1043,6 hPa 0,0 mm 1,7 mm 3,2 km/h 9,7 km/h NO 0,0 W/qm 0,0 nein 23:10
23:153,5 °C 5,6 °C 5,6 °C 86 % 1043,6 hPa 0,0 mm - 3,2 km/h 9,7 km/h NO 0,0 W/qm 0,0 nein 23:15
23:203,4 °C 5,6 °C 5,6 °C 86 % 1043,6 hPa 0,0 mm - 4,7 km/h 7,9 km/h ONO 0,0 W/qm 0,0 nein 23:20
23:253,1 °C 5,6 °C 5,6 °C 86 % 1043,6 hPa 0,0 mm - 3,2 km/h 7,9 km/h NO 0,0 W/qm 0,0 nein 23:25
23:302,7 °C 5,6 °C 5,6 °C 86 % 1043,7 hPa 0,0 mm - 1,4 km/h 7,9 km/h NNW 0,0 W/qm 0,0 nein 23:30
23:352,2 °C 5,6 °C 5,6 °C 87 % 1043,9 hPa 0,0 mm - 1,4 km/h 6,5 km/h NNW 0,0 W/qm 0,0 nein 23:35
23:402,1 °C 5,6 °C 5,6 °C 88 % 1043,9 hPa 0,0 mm - 0,0 km/h 6,5 km/h NNW 0,0 W/qm 0,0 nein 23:40
23:451,9 °C 5,6 °C 5,6 °C 89 % 1044,0 hPa 0,0 mm - 0,0 km/h 4,7 km/h N 0,0 W/qm 0,0 nein 23:45
23:501,7 °C 5,6 °C 5,6 °C 88 % 1043,9 hPa 0,0 mm - 0,0 km/h 4,7 km/h N 0,0 W/qm 0,0 nein 23:50
23:551,6 °C 5,6 °C 5,6 °C 89 % 1044,1 hPa 0,0 mm - 0,0 km/h 3,2 km/h NNO 0,0 W/qm 0,0 nein 23:55
Gesamt: 6,6 °C 5,7 °C 5,6 °C 81 % 1039,2 hPa 0,0 mm 35,3 mm 7,8 km/h 16,9 km/h 0 125,0 W/qm 0,3 ja

Insgesamt 288 Zeilen mal 13 Spalten = 3744 Werte werden angezeigt.

www.wetter-rosstal.de   •   www.wetter-franken.de   •   www.lightningmaps.org   •   Start   •   Kontakt / Datenschutz   •   PC-Kümmerer